Visalia, CA

9:39 AM PDT on October 14, 2019 (GMT -0700)
Visalia Municipal

Weather History for KVIS - August, 2019

Change the Weather History Date:

Saturday, August 24, 2019

  Actual Average Record
Temperature  
Mean Temperature 84 °F -  
Max Temperature 99 °F 92 °F 113 °F (1931)
Min Temperature 68 °F 61 °F 52 °F (1943)
Cooling Degree Days 18    
Growing Degree Days 34 (Base 50)    
Moisture  
Dew Point 65 °F    
Average Humidity 56    
Maximum Humidity 84    
Minimum Humidity 33    
Precipitation  
Precipitation 0.00 in - - ()
Sea Level Pressure  
Sea Level Pressure 29.87 in    
Wind  
Wind Speed 4 mph (West)    
Max Wind Speed 12 mph    
Max Gust Speed -    
Visibility 10 miles    
Events      
Averages and records for this station are not official NWS values.
T = Trace of Precipitation, MM = Missing Value Source: NWS Daily Summary

Daily Weather History Graph

Daily Weather History Graph

Search for Another Location

Airport or City:

Astronomy

Aug. 24, 2019 Rise Set
Actual Time 6:22 AM PDT 7:36 PM PDT
Civil Twilight 5:55 AM PDT 8:03 PM PDT
Nautical Twilight 5:23 AM PDT 8:35 PM PDT
Astronomical Twilight 4:50 AM PDT 9:08 PM PDT
Moon 12:22 AM PDT (8/24) 2:53 PM PDT (8/24)
Length of Visible Light 14h 07m
Length of Day
13h 14m
Last Quarter, 38% of the Moon is Illuminated
Aug 24
Last Quarter
Aug 30
New
Sep 5
First Quarter
Sep 13
Full
Sep 21
Last Quarter

Hourly Weather History & Observations

Time (PDT) Temp. Heat Index Dew Point Humidity Pressure Visibility Wind Dir Wind Speed Gust Speed Precip Events Conditions
12:56 AM 77.0 °F - 64.9 °F 66% 29.80 in 10.0 mi Calm Calm - N/A   Clear
1:56 AM 77.0 °F - 63.0 °F 62% 29.82 in 10.0 mi NNW 6.9 mph - N/A   Clear
3:56 AM 72.0 °F - 64.9 °F 78% 29.83 in 10.0 mi Calm Calm - N/A   Clear
4:56 AM 70.0 °F - 64.9 °F 84% 29.85 in 10.0 mi ESE 4.6 mph - N/A   Clear
5:56 AM 70.0 °F - 61.0 °F 73% 29.86 in 10.0 mi East 3.5 mph - N/A   Clear
6:56 AM 68.0 °F - 62.1 °F 81% 29.87 in 10.0 mi SE 3.5 mph - N/A   Clear
7:56 AM 72.0 °F - 63.0 °F 73% 29.90 in 10.0 mi SSE 3.5 mph - N/A   Clear
8:56 AM 77.0 °F - 64.0 °F 64% 29.91 in 10.0 mi SSW 3.5 mph - N/A   Clear
9:56 AM 81.0 °F 83.0 °F 66.0 °F 60% 29.91 in 10.0 mi SSW 3.5 mph - N/A   Clear
10:56 AM 84.0 °F 86.3 °F 66.0 °F 55% 29.91 in 10.0 mi Variable 3.5 mph - N/A   Clear
11:56 AM 87.1 °F 89.2 °F 66.0 °F 49% 29.90 in 10.0 mi Variable 4.6 mph - N/A   Clear
12:56 PM 91.0 °F 95.2 °F 68.0 °F 47% 29.89 in 10.0 mi WNW 5.8 mph - N/A   Clear
1:56 PM 93.9 °F 97.0 °F 66.0 °F 40% 29.87 in 10.0 mi West 8.1 mph - N/A   Clear
2:56 PM 96.1 °F 98.8 °F 64.9 °F 36% 29.86 in 10.0 mi West 8.1 mph - N/A   Clear
3:56 PM 98.1 °F 100.7 °F 64.0 °F 33% 29.85 in 10.0 mi WNW 9.2 mph - N/A   Clear
4:56 PM 99.0 °F 102.9 °F 66.0 °F 34% 29.84 in 10.0 mi WNW 9.2 mph - N/A   Clear
5:56 PM 97.0 °F 100.4 °F 66.0 °F 36% 29.84 in 10.0 mi WNW 11.5 mph - N/A   Clear
6:56 PM 93.9 °F 98.6 °F 68.0 °F 43% 29.84 in 10.0 mi West 5.8 mph - N/A   Clear
7:56 PM 90.0 °F 92.8 °F 66.9 °F 46% 29.85 in 10.0 mi WNW 6.9 mph - N/A   Clear
8:56 PM 88.0 °F 90.3 °F 66.0 °F 48% 29.86 in 10.0 mi WNW 9.2 mph - N/A   Clear
9:56 PM 84.0 °F 86.5 °F 66.9 °F 56% 29.88 in 10.0 mi WNW 8.1 mph - N/A   Clear
10:56 PM 82.0 °F 84.1 °F 66.0 °F 58% 29.89 in 10.0 mi WNW 6.9 mph - N/A   Clear
11:56 PM 81.0 °F 82.7 °F 64.9 °F 58% 29.90 in 10.0 mi NW 5.8 mph - N/A   Clear